When you browse on this site, cookies collect data to enhance your experience and personalize the content and advertising you see.
Visit our Privacy Policy to learn more. By continuing to use the site, you agree to this use of cookies and data.
  • In Deutschland
  • Länderverzeichnis
  • Für 7 Tage
  • Wassertemperatur
  • Satellitenkarten
  • Wetterkarte
  • Widgets
  • user-avatar
    Anmelden

    Stündliche Wetter Openki

    Heute, 20 Februar, Mittwoch

    Zeit Temperatur Niederschläge Wind Luftdruck Luftfeuchtigkeit
    00:00 -1°C° 0 mm 1 m/S 768 mmHg 57%
    01:00 -1°C° 0 mm 1 m/S 768 mmHg 56%
    02:00 -1°C° 0 mm 1 m/S 767 mmHg 56%
    03:00 -3°C° 0 mm 2 m/S 767 mmHg 56%
    04:00 -3°C° 0 mm 2 m/S 767 mmHg 55%
    05:00 -3°C° 0 mm 2 m/S 767 mmHg 55%
    06:00 -3°C° 0 mm 2 m/S 766 mmHg 55%
    07:00 -2°C° 0 mm 2 m/S 766 mmHg 52%
    08:00 -2°C° 0 mm 2 m/S 766 mmHg 48%
    09:00 -1°C° 0 mm 2 m/S 766 mmHg 45%
    10:00 +2°C° 0 mm 2 m/S 765 mmHg 41%
    11:00 +3°C° 0 mm 2 m/S 765 mmHg 36%
    12:00 +4°C° 0 mm 3 m/S 765 mmHg 31%
    13:00 +4°C° 0 mm 3 m/S 764 mmHg 32%
    14:00 +5°C° 0 mm 3 m/S 764 mmHg 33%
    15:00 +7°C° 0 mm 3 m/S 763 mmHg 33%
    16:00 +6°C° 0 mm 2 m/S 763 mmHg 39%
    17:00 +5°C° 0 mm 2 m/S 763 mmHg 45%
    18:00 +3°C° 0 mm 2 m/S 762 mmHg 51%
    19:00 +3°C° 0 mm 2 m/S 762 mmHg 54%
    20:00 +2°C° 0 mm 2 m/S 762 mmHg 58%
    21:00 +1°C° 0 mm 3 m/S 762 mmHg 61%
    22:00 +1°C° 0 mm 3 m/S 762 mmHg 62%
    23:00 +1°C° 0 mm 3 m/S 762 mmHg 63%

    Morgen, 21 Februar, Donnerstag

    Zeit Temperatur Niederschläge Wind Luftdruck Luftfeuchtigkeit
    00:00 0°C° 0 mm 3 m/S 761 mmHg 64%
    01:00 0°C° 0 mm 3 m/S 761 mmHg 71%
    02:00 0°C° 0 mm 3 m/S 761 mmHg 78%
    03:00 0°C° 0 mm 3 m/S 761 mmHg 85%
    04:00 0°C° 0 mm 3 m/S 760 mmHg 87%
    05:00 -1°C° 0 mm 4 m/S 760 mmHg 89%
    06:00 -1°C° 0 mm 4 m/S 760 mmHg 90%
    07:00 0°C° 0 mm 5 m/S 760 mmHg 85%
    08:00 +1°C° 0 mm 5 m/S 759 mmHg 80%
    09:00 +2°C° 0 mm 6 m/S 759 mmHg 75%
    10:00 +3°C° 0 mm 7 m/S 759 mmHg 70%
    11:00 +5°C° 0 mm 7 m/S 758 mmHg 65%
    12:00 +6°C° 0 mm 8 m/S 758 mmHg 60%
    13:00 +6°C° 0.1 mm 8 m/S 757 mmHg 64%
    14:00 +6°C° 0.1 mm 8 m/S 757 mmHg 69%
    15:00 +6°C° 0.1 mm 8 m/S 756 mmHg 73%
    16:00 +5°C° 0.2 mm 7 m/S 756 mmHg 71%
    17:00 +4°C° 0.2 mm 6 m/S 756 mmHg 68%
    18:00 +5°C° 0.2 mm 5 m/S 756 mmHg 66%
    19:00 +3°C° 0 mm 6 m/S 756 mmHg 66%
    20:00 +2°C° 0 mm 7 m/S 756 mmHg 67%
    21:00 +2°C° 0 mm 7 m/S 757 mmHg 67%
    22:00 -1°C° 0.3 mm 7 m/S 757 mmHg 66%
    23:00 -3°C° 0.3 mm 7 m/S 758 mmHg 66%

    übermorgen, 22 Februar, Freitag

    Zeit Temperatur Niederschläge Wind Luftdruck Luftfeuchtigkeit
    00:00 -4°C° 0.3 mm 6 m/S 758 mmHg 65%
    01:00 -4°C° 0 mm 6 m/S 758 mmHg 65%
    02:00 -4°C° 0 mm 5 m/S 759 mmHg 65%
    03:00 -4°C° 0 mm 5 m/S 759 mmHg 66%
    04:00 -5°C° 0 mm 5 m/S 759 mmHg 66%
    05:00 -5°C° 0 mm 5 m/S 760 mmHg 65%
    06:00 -5°C° 0 mm 5 m/S 760 mmHg 65%
    07:00 -5°C° 0 mm 6 m/S 760 mmHg 62%
    08:00 -4°C° 0 mm 6 m/S 760 mmHg 59%
    09:00 -4°C° 0 mm 7 m/S 761 mmHg 56%
    10:00 -3°C° 0 mm 7 m/S 760 mmHg 53%
    11:00 -2°C° 0 mm 7 m/S 760 mmHg 51%
    12:00 -1°C° 0 mm 7 m/S 760 mmHg 49%
    13:00 -1°C° 0 mm 7 m/S 760 mmHg 47%
    14:00 0°C° 0 mm 7 m/S 759 mmHg 46%
    15:00 +1°C° 0 mm 6 m/S 759 mmHg 45%
    16:00 0°C° 0 mm 5 m/S 759 mmHg 49%
    17:00 +1°C° 0 mm 3 m/S 759 mmHg 53%
    18:00 +1°C° 0 mm 2 m/S 759 mmHg 56%
    19:00 +1°C° 0.2 mm 2 m/S 759 mmHg 64%
    20:00 -1°C° 0.2 mm 2 m/S 759 mmHg 72%
    21:00 -2°C° 0.2 mm 2 m/S 759 mmHg 80%
    22:00 -2°C° 0.6 mm 3 m/S 759 mmHg 83%
    23:00 -3°C° 0.6 mm 4 m/S 759 mmHg 87%

    23 Februar, Samstag

    Zeit Temperatur Niederschläge Wind Luftdruck Luftfeuchtigkeit
    00:00 -4°C° 0.6 mm 5 m/S 759 mmHg 90%
    01:00 -3°C° 0.8 mm 4 m/S 759 mmHg 91%
    02:00 -2°C° 0.8 mm 3 m/S 759 mmHg 93%
    03:00 -1°C° 0.8 mm 3 m/S 759 mmHg 94%
    04:00 -1°C° 0.4 mm 3 m/S 759 mmHg 93%
    05:00 -1°C° 0.4 mm 3 m/S 759 mmHg 93%
    06:00 +1°C° 0.4 mm 2 m/S 759 mmHg 93%
    07:00 +1°C° 0.1 mm 2 m/S 759 mmHg 93%
    08:00 +1°C° 0.1 mm 2 m/S 760 mmHg 93%
    09:00 +2°C° 0.1 mm 2 m/S 760 mmHg 93%
    10:00 +2°C° 0.1 mm 2 m/S 760 mmHg 92%
    11:00 +2°C° 0.1 mm 3 m/S 760 mmHg 92%
    12:00 +2°C° 0.1 mm 3 m/S 760 mmHg 91%
    13:00 +2°C° 0.2 mm 3 m/S 760 mmHg 91%
    14:00 +2°C° 0.2 mm 3 m/S 761 mmHg 91%
    15:00 +2°C° 0.2 mm 3 m/S 761 mmHg 91%
    16:00 0°C° 0.2 mm 4 m/S 761 mmHg 92%
    17:00 -1°C° 0.2 mm 4 m/S 761 mmHg 93%
    18:00 -2°C° 0.2 mm 4 m/S 762 mmHg 94%
    19:00 -2°C° 0.2 mm 4 m/S 762 mmHg 94%
    20:00 -3°C° 0.2 mm 4 m/S 763 mmHg 94%
    21:00 -3°C° 0.2 mm 4 m/S 763 mmHg 94%
    22:00 -3°C° 0.1 mm 4 m/S 764 mmHg 94%
    23:00 -4°C° 0.1 mm 4 m/S 764 mmHg 94%

    24 Februar, Sonntag

    Zeit Temperatur Niederschläge Wind Luftdruck Luftfeuchtigkeit
    00:00 -4°C° 0.1 mm 4 m/S 764 mmHg 94%
    01:00 -4°C° 0 mm 4 m/S 764 mmHg 94%
    02:00 -4°C° 0 mm 4 m/S 764 mmHg 94%
    03:00 -4°C° 0 mm 3 m/S 764 mmHg 94%
    04:00 -4°C° 0.1 mm 3 m/S 764 mmHg 94%
    05:00 -4°C° 0.1 mm 3 m/S 764 mmHg 94%
    06:00 -4°C° 0.1 mm 3 m/S 764 mmHg 94%
    07:00 -4°C° 0.1 mm 3 m/S 765 mmHg 93%
    08:00 -4°C° 0.1 mm 3 m/S 765 mmHg 93%
    09:00 -4°C° 0.1 mm 3 m/S 765 mmHg 92%
    10:00 -2°C° 0.1 mm 3 m/S 765 mmHg 92%
    11:00 -2°C° 0.1 mm 3 m/S 765 mmHg 92%
    12:00 -1°C° 0.1 mm 3 m/S 765 mmHg 92%
    13:00 -1°C° 0.2 mm 3 m/S 765 mmHg 92%
    14:00 -1°C° 0.2 mm 3 m/S 765 mmHg 92%
    15:00 0°C° 0.2 mm 3 m/S 765 mmHg 93%
    16:00 0°C° 0.1 mm 3 m/S 765 mmHg 93%
    17:00 -1°C° 0.1 mm 3 m/S 765 mmHg 94%
    18:00 -1°C° 0.1 mm 3 m/S 765 mmHg 94%
    19:00 -1°C° 0 mm 3 m/S 765 mmHg 94%
    20:00 -1°C° 0 mm 3 m/S 765 mmHg 95%
    21:00 -1°C° 0 mm 3 m/S 766 mmHg 95%
    22:00 -1°C° 0.1 mm 3 m/S 765 mmHg 94%
    23:00 0°C° 0.1 mm 3 m/S 765 mmHg 93%

    25 Februar, Montag

    Zeit Temperatur Niederschläge Wind Luftdruck Luftfeuchtigkeit
    00:00 0°C° 0.1 mm 3 m/S 765 mmHg 92%
    01:00 0°C° 0.1 mm 3 m/S 765 mmHg 92%
    02:00 0°C° 0.1 mm 3 m/S 765 mmHg 92%
    03:00 0°C° 0.1 mm 3 m/S 765 mmHg 92%
    04:00 -1°C° 0.1 mm 4 m/S 765 mmHg 92%
    05:00 -1°C° 0.1 mm 4 m/S 765 mmHg 92%
    06:00 -1°C° 0.1 mm 4 m/S 765 mmHg 92%
    07:00 -1°C° 0.1 mm 4 m/S 765 mmHg 92%
    08:00 -1°C° 0.1 mm 4 m/S 765 mmHg 92%
    09:00 -1°C° 0.1 mm 4 m/S 765 mmHg 92%
    10:00 0°C° 0 mm 4 m/S 765 mmHg 90%
    11:00 +2°C° 0 mm 3 m/S 765 mmHg 89%
    12:00 +3°C° 0 mm 3 m/S 765 mmHg 88%
    13:00 +3°C° 0 mm 3 m/S 764 mmHg 86%
    14:00 +3°C° 0 mm 3 m/S 764 mmHg 83%
    15:00 +4°C° 0 mm 4 m/S 763 mmHg 81%
    16:00 +3°C° 0 mm 4 m/S 763 mmHg 84%
    17:00 +2°C° 0 mm 3 m/S 763 mmHg 86%
    18:00 +1°C° 0 mm 3 m/S 762 mmHg 88%
    19:00 +1°C° 0 mm 3 m/S 762 mmHg 90%
    20:00 +1°C° 0 mm 3 m/S 762 mmHg 91%
    21:00 0°C° 0 mm 3 m/S 762 mmHg 92%
    22:00 0°C° 0 mm 3 m/S 761 mmHg 91%
    23:00 0°C° 0 mm 3 m/S 761 mmHg 91%
    Mehr zeigen